Date String (YYYY-MM-DD hh:mm:ss) UTC,Instrument flags,absolute air pressure of the measurement (hPa),sample flow rate (lpm),inlet stack bypass flow (lpm),air temperature of the measurement (°C),ambient temperature measured by the external sensor (°C),aerosol sample conditioner tube jacket temperature (°C),OPC LED temperature (°C),internal box temperature (°C),relative humidity of the measurement (%),span deviation,mass concentration of particles derived from Lorenz-Mie calculation of OPC scattering (μg/m³),mass concentration of particles derived from Lorenz-Mie calculation of OPC scattering (μg/m³),mass concentration of particles derived from Lorenz-Mie calculation of OPC scattering (μg/m³)
DateTimeUTC,F1_M11,P_M11,Q1_M11,Q2_M11,T1_M11,T2_M11,T3_M11,T4_M11,T5_M11,U1_M11,ZSPAN_M11,X2_M11,X0_M11,X1_M11
2024-03-20 01:00:00,SystemResetWarning,0827.0,4.99,000.00,026.0,025.3,000.0,034.4,027.8,12.1,0000.0,0003.54,0011.57,0002.61
2024-03-20 01:01:00,SystemResetWarning,0827.0,4.99,000.00,026.0,025.3,000.0,034.4,027.8,12.1,0000.0,0003.49,0011.07,0002.60
2024-03-20 01:02:00,SystemResetWarning,0827.0,4.99,000.00,026.0,025.3,000.0,034.4,027.8,13.4,0000.0,0003.49,0010.85,0002.61
2024-03-20 01:03:00,SystemResetWarning,0827.0,5.00,000.00,026.0,025.3,000.0,034.4,027.8,13.7,0000.0,0003.45,0011.15,0002.57
2024-03-20 01:04:00,SystemResetWarning,0827.0,5.01,000.00,026.0,025.3,000.0,034.5,027.8,13.7,0000.0,0003.45,0012.17,0002.57
2024-03-20 01:05:00,SystemResetWarning,0827.0,5.01,000.00,026.0,025.3,000.0,034.5,027.8,13.6,0000.0,0003.52,0013.28,0002.58
2024-03-20 01:06:00,SystemResetWarning,0827.0,4.98,000.00,026.0,025.3,000.0,034.5,027.8,13.5,0000.0,0003.55,0013.88,0002.60
2024-03-20 01:07:00,SystemResetWarning,0827.0,5.00,000.00,026.0,025.2,000.0,034.5,027.8,13.2,0000.0,0003.59,0014.58,0002.62
2024-03-20 01:08:00,SystemResetWarning,0827.0,5.01,000.00,026.0,025.2,000.0,034.5,027.8,13.0,0000.0,0003.65,0015.20,0002.63
2024-03-20 01:09:00,SystemResetWarning,0827.0,5.00,000.00,026.0,025.2,000.0,034.5,027.8,13.2,0000.0,0003.69,0015.15,0002.65
2024-03-20 01:10:00,SystemResetWarning,0827.0,4.99,000.00,026.0,025.2,000.0,034.5,027.8,13.2,0000.0,0003.75,0014.94,0002.69
2024-03-20 01:11:00,SystemResetWarning,0827.0,5.00,000.00,026.0,025.2,000.0,034.5,027.8,13.2,0000.0,0003.76,0013.62,0002.72
2024-03-20 01:12:00,SystemResetWarning,0827.0,4.99,000.00,026.0,025.2,000.0,034.5,027.8,13.0,0000.0,0003.80,0013.84,0002.75
2024-03-20 01:13:00,SystemResetWarning,0827.0,5.01,000.00,026.0,025.2,000.0,034.5,027.8,12.9,0000.0,0003.81,0013.28,0002.76
2024-03-20 01:14:00,SystemResetWarning,0827.0,5.00,000.00,026.0,025.2,000.0,034.5,027.8,13.0,0000.0,0003.83,0012.60,0002.79
2024-03-20 01:15:00,SystemResetWarning,0827.0,5.00,000.00,026.0,025.2,000.0,034.5,027.8,13.0,0000.0,0003.85,0012.77,0002.82
2024-03-20 01:16:00,SystemResetWarning,0827.0,5.00,000.00,026.0,025.2,000.0,034.5,027.8,13.1,0000.0,0003.85,0012.62,0002.85
2024-03-20 01:17:00,SystemResetWarning,0827.0,5.00,000.00,026.0,025.2,000.0,034.5,027.8,13.1,0000.0,0003.87,0011.75,0002.89
2024-03-20 01:18:00,SystemResetWarning,0827.1,5.00,000.00,026.0,025.2,000.0,034.5,027.8,13.0,0000.0,0003.89,0011.37,0002.92
2024-03-20 01:19:00,SystemResetWarning,0827.1,5.00,000.00,026.0,025.1,000.0,034.5,027.8,13.0,0000.0,0003.84,0010.61,0002.94
2024-03-20 01:20:00,SystemResetWarning,0827.1,4.99,000.00,026.0,025.1,000.0,034.5,027.8,13.2,0000.0,0003.83,0010.43,0002.99
2024-03-20 01:21:00,SystemResetWarning,0827.1,5.01,000.00,026.0,025.1,000.0,034.5,027.8,14.0,0000.0,0003.84,0011.41,0003.03
2024-03-20 01:22:00,SystemResetWarning,0827.0,5.01,000.00,026.0,025.1,000.0,034.5,027.8,14.1,0000.0,0003.85,0011.46,0003.07
2024-03-20 01:23:00,SystemResetWarning,0827.1,5.00,000.00,026.0,025.1,000.0,034.5,027.8,14.1,0000.0,0003.90,0011.48,0003.10
2024-03-20 01:24:00,SystemResetWarning,0827.1,4.99,000.00,026.0,025.1,000.0,034.5,027.8,15.0,0000.0,0003.96,0011.58,0003.15
2024-03-20 01:25:00,SystemResetWarning,0827.0,4.99,000.00,026.0,025.1,000.0,034.5,027.8,15.2,0000.0,0004.02,0011.85,0003.20
2024-03-20 01:26:00,SystemResetWarning,0827.1,4.99,000.00,026.0,025.0,000.0,034.5,027.8,14.3,0000.0,0004.04,0010.91,0003.24
2024-03-20 01:27:00,SystemResetWarning,0827.1,5.00,000.00,026.0,025.0,000.0,034.5,027.8,14.2,0000.0,0004.09,0010.43,0003.27
2024-03-20 01:28:00,SystemResetWarning,0827.1,5.00,000.00,026.0,025.0,000.0,034.5,027.8,14.2,0000.0,0004.10,0010.67,0003.28
2024-03-20 01:29:00,SystemResetWarning,0827.0,5.00,000.00,025.9,025.0,000.0,034.5,027.8,14.1,0000.0,0004.13,0010.96,0003.30
2024-03-20 01:30:00,SystemResetWarning,0827.0,5.00,000.00,025.9,025.0,000.0,034.5,027.8,14.1,0000.0,0004.18,0011.42,0003.33
2024-03-20 01:31:00,SystemResetWarning,0827.0,5.00,000.00,025.9,025.0,000.0,034.5,027.8,13.9,0000.0,0004.25,0011.88,0003.35
2024-03-20 01:32:00,SystemResetWarning,0827.0,5.00,000.00,025.9,025.0,000.0,034.5,027.7,14.0,0000.0,0004.31,0011.59,0003.35
2024-03-20 01:33:00,SystemResetWarning,0827.0,5.01,000.00,025.9,025.0,000.0,034.5,027.7,14.0,0000.0,0004.30,0011.69,0003.35
2024-03-20 01:34:00,SystemResetWarning,0827.0,5.00,000.00,025.9,025.0,000.0,034.5,027.7,14.0,0000.0,0004.29,0011.67,0003.35
2024-03-20 01:35:00,SystemResetWarning,0827.0,5.00,000.00,025.9,025.0,000.0,034.5,027.7,14.0,0000.0,0004.24,0011.91,0003.34
2024-03-20 01:36:00,SystemResetWarning,0827.0,4.99,000.00,025.9,025.0,000.0,034.5,027.7,13.9,0000.0,0004.19,0011.70,0003.30
2024-03-20 01:37:00,SystemResetWarning,0827.0,5.00,000.00,025.9,025.0,000.0,034.5,027.7,14.1,0000.0,0004.16,0011.68,0003.28
2024-03-20 01:38:00,SystemResetWarning,0827.0,5.00,000.00,025.9,024.9,000.0,034.5,027.7,14.1,0000.0,0004.11,0011.24,0003.26
2024-03-20 01:39:00,SystemResetWarning,0827.0,5.00,000.00,025.9,024.9,000.0,034.5,027.7,14.0,0000.0,0004.09,0010.87,0003.24
2024-03-20 01:40:00,SystemResetWarning,0827.1,5.00,000.00,025.9,024.9,000.0,034.5,027.7,13.9,0000.0,0004.08,0010.56,0003.22
2024-03-20 01:41:00,SystemResetWarning,0827.1,5.01,000.00,025.9,024.9,000.0,034.5,027.7,14.0,0000.0,0004.07,0011.45,0003.20
2024-03-20 01:42:00,SystemResetWarning,0827.1,5.00,000.00,025.9,024.9,000.0,034.5,027.7,13.9,0000.0,0004.02,0011.95,0003.18
2024-03-20 01:43:00,SystemResetWarning,0827.1,5.00,000.00,025.9,024.9,000.0,034.5,027.7,14.0,0000.0,0003.98,0012.38,0003.17
2024-03-20 01:44:00,SystemResetWarning,0827.1,5.00,000.00,025.9,024.9,000.0,034.5,027.7,14.0,0000.0,0003.99,0012.33,0003.16
2024-03-20 01:45:00,SystemResetWarning,0827.1,5.00,000.00,025.9,024.9,000.0,034.5,027.7,14.0,0000.0,0003.96,0012.27,0003.14
2024-03-20 01:46:00,SystemResetWarning,0827.1,5.00,000.00,025.8,024.9,000.0,034.5,027.7,14.0,0000.0,0003.94,0011.77,0003.12
2024-03-20 01:47:00,SystemResetWarning,0827.0,5.00,000.00,025.8,024.9,000.0,034.5,027.7,13.9,0000.0,0003.96,0011.97,0003.11
2024-03-20 01:48:00,SystemResetWarning,0827.1,5.00,000.00,025.8,024.9,000.0,034.5,027.6,13.9,0000.0,0003.97,0012.15,0003.08
2024-03-20 01:49:00,SystemResetWarning,0827.0,5.00,000.00,025.8,024.8,000.0,034.5,027.6,14.0,0000.0,0003.96,0012.35,0003.04
2024-03-20 01:50:00,SystemResetWarning,0827.1,4.99,000.00,025.8,024.8,000.0,034.5,027.6,14.1,0000.0,0003.98,0012.68,0003.03
2024-03-20 01:51:00,SystemResetWarning,0827.0,5.01,000.00,025.8,024.8,000.0,034.4,027.6,13.9,0000.0,0003.99,0013.41,0003.00
2024-03-20 01:52:00,SystemResetWarning,0827.1,5.01,000.00,025.8,024.8,000.0,034.4,027.6,14.0,0000.0,0003.95,0012.81,0002.98
2024-03-20 01:53:00,SystemResetWarning,0827.1,5.01,000.00,025.8,024.8,000.0,034.4,027.6,14.0,0000.0,0003.94,0012.07,0002.96
2024-03-20 01:54:00,SystemResetWarning,0827.1,5.00,000.00,025.8,024.8,000.0,034.4,027.6,13.9,0000.0,0003.91,0012.40,0002.94
2024-03-20 01:55:00,SystemResetWarning,0827.1,4.99,000.00,025.8,024.8,000.0,034.4,027.6,14.0,0000.0,0003.87,0013.35,0002.89
2024-03-20 01:56:00,SystemResetWarning,0827.1,4.99,000.00,025.8,024.8,000.0,034.4,027.6,14.0,0000.0,0003.85,0013.68,0002.87
2024-03-20 01:57:00,SystemResetWarning,0827.1,5.00,000.00,025.7,024.7,000.0,034.4,027.6,14.0,0000.0,0003.82,0013.59,0002.86
2024-03-20 01:58:00,SystemResetWarning,0827.1,5.00,000.00,025.7,024.7,000.0,034.4,027.6,14.0,0000.0,0003.82,0013.47,0002.85
2024-03-20 01:59:00,SystemResetWarning,0827.1,5.01,000.00,025.7,024.7,000.0,034.4,027.6,13.9,0000.0,0003.79,0013.20,0002.84
